User: anonymous   Login
Location: Newark
(13.5236°S, 71.9791°W)
Time: 00:59:20
(UTC+00:00)
Language:

ISS - Orbit

View from above orbital plane
View from above orbital plane
View from above satellite
View from above satellite

Ground track
Ground track

The orbit data is extracted from the following two-line orbital elements,

1 25544U 98067A   19263.54091038  .00016717  00000-0  10270-3 0  9020
2 25544  51.6390 248.3578 0007393  65.4334 294.7586 15.50109136 30049
Epoch (UTC): 20 September 2019 12:58:54
Eccentricity: 0.0007393
inclination: 51.6390°
perigee height: 411 km
apogee height: 421 km
right ascension of ascending node: 248.3578°
argument of perigee: 65.4334°
revolutions per day: 15.50109136
mean anomaly at epoch: 294.7586°
orbit number at epoch: 3004

The dashed part of the orbit path shows where the satellite is in the earth's shadow,  

DLR